Location: Dunedin
(45.8670°S, 170.5000°E)
Time: 09:13:23
(UTC+13:00)

ISS - Visible Passes

Search period start: 28 February 2021 00:00
Search period end: 10 March 2021 00:00
Orbit: 417 x 422 km, 51.6° (Epoch: 27 February)

Date Brightness Start Highest point End Pass type
(mag) Time Alt. Az. Time Alt. Az. Time Alt. Az.
28 Feb -3.4 21:36:56 10° WSW 21:40:21 58° SSE 21:42:21 22° E visible
28 Feb -1.2 23:14:01 10° W 23:15:18 18° W 23:15:18 18° W visible
01 Mar -3.0 22:26:21 10° WSW 22:29:37 43° NW 22:29:37 43° NW visible
02 Mar -3.6 21:38:48 10° WSW 21:42:14 67° NNW 21:44:00 26° NE visible
03 Mar -3.7 20:51:18 10° WSW 20:54:47 82° SSE 20:58:13 10° ENE visible
03 Mar -1.5 22:28:50 10° W 22:31:13 18° NW 22:31:24 18° NW visible
04 Mar -2.1 21:40:56 10° W 21:43:55 27° NW 21:45:54 16° N visible
05 Mar -2.7 20:53:14 10° WSW 20:56:32 42° NW 20:59:48 10° NE visible
06 Mar -0.8 21:44:22 10° WNW 21:45:21 11° NW 21:46:20 10° NNW visible
07 Mar -1.2 20:55:41 10° W 20:58:05 18° NW 21:00:27 10° N visible
